Location: Alessandria
(44.9000°N, 8.6170°E)
Time: 01:22:47
(UTC+02:00)

ISS - Pass Details

Date: 12 May 2021
Orbit: 417 x 422 km, 51.6° (Epoch: 14 June)

Event Time Altitude Azimuth Distance (km) Brightness Sun altitude
Rises 04:24:24 0° 300° (WNW) 2,374 -0.1 -14.5°
Reaches altitude 10° 04:26:35 10° 307° (NW) 1,509 -1.0 -14.2°
Maximum altitude 04:29:49 41° 20° (NNE) 621 -2.4 -13.8°
Drops below altitude 10° 04:33:03 10° 93° (E) 1,506 -0.3 -13.4°
Sets 04:35:13 0° 101° (E) 2,369 0.6 -13.1°
